Regional Weather Roundup
Issued by NWS

Home | Current Version | Previous Version | Graphics & Text | Print | Product List | Glossary On
Versions: 1 2 3 4 5 6 7 8 9 10 11 12 13 14 15 16 17 18 19 20 21 22 23 24 25 26 27 28 29 30 31 32 33 34 35 36 37 38 39 40 41 42 43 44 45 46 47 48 49 50
277
ASUS43 KOAX 170602
RWRNE

WEATHER ROUNDUP FOR NEBRASKA
NATIONAL WEATHER SERVICE OMAHA NE
1200 AM CST TUE JAN 17 2017

NOTES: SATELLITE DATA IS BEING USED TO AUGMENT CLOUD COVER ABOVE
       12000 FEET.
       "FAIR" INDICATES FEW OR NO CLOUDS BELOW 12,000 FEET WITH NO
       SIGNIFICANT WEATHER AND/OR OBSTRUCTIONS TO VISIBILITY.

  * THESE STATIONS DO NOT REPORT WEATHER SUCH AS RAIN...SNOW OR FOG.

NEZ001>004-019>022-054>056-170700-
NEBRASKA PANHANDLE

CITY           SKY/WX    TMP DP  RH WIND       PRES   REMARKS
SCOTTSBLUFF    CLEAR     21  15  78 NW7       30.10S WCI  12
6HR MIN TEMP:  21; 6HR MAX TEMP:  34;

ALLIANCE       CLOUDY    18  13  80 W10       30.05F WCI   6
6HR MIN TEMP:  12; 6HR MAX TEMP:  30;

CHADRON        CLEAR     14  10  84 CALM      30.09S
6HR MIN TEMP:  12; 6HR MAX TEMP:  29;

SIDNEY         CLOUDY    20  13  74 W10       30.08S WCI   9
6HR MIN TEMP:  20; 6HR MAX TEMP:  35;

$$

NEZ057>060-069>072-079>082-170700-
SOUTHWEST NEBRASKA

CITY           SKY/WX    TMP DP  RH WIND       PRES   REMARKS
NORTH PLATTE   CLEAR     24  18  77 W7        30.06S WCI  16
6HR MIN TEMP:  24; 6HR MAX TEMP:  35;

IMPERIAL       CLEAR     29  22  75 NW10      30.07F WCI  20
6HR MIN TEMP:  29; 6HR MAX TEMP:  35;

LEXINGTON      CLEAR     29  23  78 NW9       30.05R WCI  20
MCCOOK         CLEAR     30  24  78 W7        30.07S WCI  23
6HR MIN TEMP:  30; 6HR MAX TEMP:  35;

OGALLALA       CLEAR     27  22  79 W8        30.07S WCI  19
$$

NEZ005>010-023>029-035>040-094-170700-
NORTH CENTRAL NEBRASKA

CITY           SKY/WX    TMP DP  RH WIND       PRES   REMARKS
VALENTINE      CLEAR     20  13  74 W8        30.06R WCI  10
6HR MIN TEMP:  18; 6HR MAX TEMP:  27;

AINSWORTH      CLOUDY    20  17  86 NW9       30.04S WCI  10
BROKEN BOW     CLOUDY    27  19  72 NW16      30.03R WCI  15
6HR MIN TEMP:  27; 6HR MAX TEMP:  35;

O`NEILL        CLOUDY    21  17  83 NW13      30.04S WCI   9
ORD            CLOUDY    24  18  77 NW15      30.02S WCI  11
6HR MIN TEMP:  24; 6HR MAX TEMP:  33;

THEDFORD       PTCLDY    26  19  76 NW7       30.05R WCI  18
$$

NEZ041-046>049-061>064-073>077-083>087-170700-
SOUTH CENTRAL NEBRASKA

CITY           SKY/WX    TMP DP  RH WIND       PRES   REMARKS
GRAND ISLAND     N/A    N/A N/A N/A MISG        N/A
AURORA         CLOUDY    31  28  90 N3        30.00S
HASTINGS       PTCLDY    30  26  85 NW9       30.02R WCI  22
6HR MIN TEMP:  30; 6HR MAX TEMP:  33;

HEBRON         CLOUDY    32  30  92 NW3       30.01R
HOLDREGE       CLEAR     31  26  81 NW3       30.04R
KEARNEY *      CLEAR     28  21  74 CALM      30.03R
YORK           CLOUDY    32  28  86 CALM      30.00S
$$

NEZ011>018-030>034-042>045-170700-
NORTHEAST NEBRASKA

CITY           SKY/WX    TMP DP  RH WIND       PRES   REMARKS
NORFOLK        CLOUDY    24  18  77 NW17      30.01R WCI  11
6HR MIN TEMP:  24; 6HR MAX TEMP:  31; 6HR PCP:  0.02;

ALBION         PTCLDY    24  19  81 NW5       30.01S HAZE    WCI  18
BLAIR          CLOUDY    33  32  96 NW6       29.95S FOG     WCI  27
FREMONT        CLOUDY    32  32  99 NW10      29.99S WCI  24
TEKAMAH        CLOUDY    32  30  92 NW14      29.97F FOG     WCI  22
6HR MIN TEMP:  32; 6HR MAX TEMP:  33; 6HR PCP:  0.03;

WAYNE          CLOUDY    25  21  85 NW6       30.01R WCI  18
$$

NEZ050>053-065>068-078-088>093-170700-
SOUTHEAST NEBRASKA

CITY           SKY/WX    TMP DP  RH WIND       PRES   REMARKS
LINCOLN        CLOUDY    33  30  88 NW13      30.00R WCI  24
6HR MIN TEMP:  33; 6HR MAX TEMP:  33; 6HR PCP:  0.02;

OMAHA EPPLEY   CLOUDY    34  30  85 NW16      29.97R FOG     WCI  24
6HR MIN TEMP:  33; 6HR MAX TEMP:  34; 6HR PCP: TRACE;

BEATRICE       CLOUDY    33  32  96 N7        29.98R WCI  27
FALLS CITY     CLOUDY    34  33  96 NW9       29.95R WCI  27
6HR MIN TEMP:  34; 6HR MAX TEMP:  35;

NEBRASKA CITY  CLOUDY    32  32 100 N9        29.96R WCI  25
PLATTSMOUTH    CLOUDY    33  31  94 NW12      29.95S FOG     WCI  24
$$

NEZ044-045-051>053-067-170700-
OMAHA AREA

CITY           SKY/WX    TMP DP  RH WIND       PRES   REMARKS
OMAHA EPPLEY   CLOUDY    34  30  85 NW16      29.97R FOG     WCI  24
6HR MIN TEMP:  33; 6HR MAX TEMP:  34; 6HR PCP: TRACE;

BLAIR          CLOUDY    33  32  96 NW6       29.95S FOG     WCI  27
FREMONT        CLOUDY    32  32  99 NW10      29.99S WCI  24
MILLARD        DRIZZLE   35  33  92 NW9       29.97S WCI  28
OFFUTT AFB     CLOUDY    34  34 100 NW13      29.95S WCI  25
PLATTSMOUTH    CLOUDY    33  31  94 NW12      29.95S FOG     WCI  24
WAHOO          CLOUDY    32  30  93 NW12      29.97F WCI  23
$$




USA.gov is the U.S. government's official web portal to all federal, state and local government web resources and services.